Time,TemperatureF,DewpointF,PressureIn,WindDirection,WindDirectionDegrees,WindSpeedMPH,WindSpeedGustMPH,Humidity,HourlyPrecipIn,Conditions,Clouds,dailyrainin,SoftwareType,DateUTC
2013-01-01 00:03:00,17.0,11.0,29.95,West,280,4.0,10.0,77,-99.99,,,-99.99,,2013-01-01 05:03:00,
2013-01-01 00:12:00,17.0,11.0,29.95,West,280,4.0,10.0,77,-99.99,,,-99.99,,2013-01-01 05:12:00,
2013-01-01 00:22:00,16.0,11.0,29.96,West,260,6.0,11.0,78,-99.99,,,-99.99,,2013-01-01 05:22:00,
2013-01-01 00:33:00,17.0,11.0,29.96,West,270,7.0,12.0,79,-99.99,,,-99.99,,2013-01-01 05:33:00,
2013-01-01 00:42:00,17.0,11.0,29.96,West,270,7.0,12.0,79,-99.99,,,-99.99,,2013-01-01 05:42:00,
2013-01-01 00:52:00,17.0,12.0,29.96,West,270,7.0,14.0,80,-99.99,,,-99.99,,2013-01-01 05:52:00,
2013-01-01 01:02:00,17.0,11.0,29.96,WSW,255,6.0,11.0,80,-99.99,,,-99.99,,2013-01-01 06:02:00,
2013-01-01 01:12:00,17.0,11.0,29.96,WSW,255,6.0,11.0,80,-99.99,,,-99.99,,2013-01-01 06:12:00,
2013-01-01 01:22:00,17.0,12.0,29.94,WNW,285,7.0,11.0,82,-99.99,,,-99.99,,2013-01-01 06:22:00,
2013-01-01 01:32:00,16.0,12.0,29.95,WNW,290,6.0,9.0,83,-99.99,,,-99.99,,2013-01-01 06:32:00,
2013-01-01 01:42:00,16.0,12.0,29.95,WNW,290,6.0,9.0,83,-99.99,,,-99.99,,2013-01-01 06:42:00,
2013-01-01 01:52:00,16.0,12.0,29.94,WNW,295,2.0,5.0,85,-99.99,,,-99.99,,2013-01-01 06:52:00,
2013-01-01 02:02:00,16.0,13.0,29.95,WNW,295,1.0,6.0,86,-99.99,,,-99.99,,2013-01-01 07:02:00,
2013-01-01 02:12:00,16.0,13.0,29.95,WNW,295,1.0,6.0,86,-99.99,,,-99.99,,2013-01-01 07:12:00,
2013-01-01 02:22:00,16.0,12.0,29.95,NW,305,3.0,6.0,85,-99.99,,,-99.99,,2013-01-01 07:22:00,
2013-01-01 02:32:00,16.0,11.0,29.96,NNW,335,4.0,9.0,82,-99.99,,,-99.99,,2013-01-01 07:32:00,
2013-01-01 02:42:00,16.0,11.0,29.96,NNW,335,4.0,9.0,82,-99.99,,,-99.99,,2013-01-01 07:42:00,
2013-01-01 02:52:00,16.0,11.0,29.96,NW,310,5.0,10.0,79,-99.99,,,-99.99,,2013-01-01 07:52:00,
2013-01-01 03:02:00,16.0,10.0,29.97,WNW,285,4.0,9.0,77,-99.99,,,-99.99,,2013-01-01 08:02:00,
2013-01-01 03:12:00,16.0,10.0,29.97,WNW,285,4.0,9.0,77,-99.99,,,-99.99,,2013-01-01 08:12:00,
2013-01-01 03:22:00,16.0,10.0,29.97,NW,305,4.0,8.0,77,-99.99,,,-99.99,,2013-01-01 08:22:00,
2013-01-01 03:32:00,15.0,9.0,29.98,NW,305,4.0,9.0,75,-99.99,,,-99.99,,2013-01-01 08:32:00,
2013-01-01 03:42:00,15.0,9.0,29.98,NW,305,4.0,9.0,75,-99.99,,,-99.99,,2013-01-01 08:42:00,
2013-01-01 03:53:00,15.0,10.0,29.99,WNW,295,4.0,6.0,77,-99.99,,,-99.99,,2013-01-01 08:53:00,
2013-01-01 04:02:00,15.0,10.0,29.99,WNW,295,4.0,6.0,77,-99.99,,,-99.99,,2013-01-01 09:02:00,
2013-01-01 04:12:00,15.0,10.0,29.99,WNW,295,4.0,6.0,77,-99.99,,,-99.99,,2013-01-01 09:12:00,
2013-01-01 04:22:00,15.0,10.0,29.99,WNW,300,2.0,6.0,79,-99.99,,,-99.99,,2013-01-01 09:22:00,
2013-01-01 04:32:00,15.0,10.0,29.99,NW,305,4.0,7.0,79,-99.99,,,-99.99,,2013-01-01 09:32:00,
2013-01-01 04:42:00,15.0,10.0,29.99,NW,305,4.0,7.0,79,-99.99,,,-99.99,,2013-01-01 09:42:00,
2013-01-01 04:52:00,15.0,10.0,29.99,WNW,295,4.0,7.0,80,-99.99,,,-99.99,,2013-01-01 09:52:00,
2013-01-01 05:02:00,15.0,10.0,29.99,WNW,295,4.0,7.0,80,-99.99,,,-99.99,,2013-01-01 10:02:00,
2013-01-01 05:12:00,15.0,10.0,29.99,WNW,295,4.0,7.0,80,-99.99,,,-99.99,,2013-01-01 10:12:00,
2013-01-01 05:22:00,15.0,10.0,29.99,NW,305,2.0,10.0,81,-99.99,,,-99.99,,2013-01-01 10:22:00,
2013-01-01 05:33:00,15.0,10.0,29.99,NW,325,4.0,8.0,81,-99.99,,,-99.99,,2013-01-01 10:33:00,
2013-01-01 05:42:00,15.0,10.0,29.99,NW,325,4.0,8.0,81,-99.99,,,-99.99,,2013-01-01 10:42:00,
2013-01-01 05:52:00,15.0,10.0,30.00,NNW,330,4.0,8.0,81,-99.99,,,-99.99,,2013-01-01 10:52:00,
2013-01-01 06:02:00,15.0,10.0,29.99,NNW,345,4.0,7.0,82,-99.99,,,-99.99,,2013-01-01 11:02:00,
2013-01-01 06:12:00,15.0,10.0,29.99,NNW,345,4.0,7.0,82,-99.99,,,-99.99,,2013-01-01 11:12:00,
2013-01-01 06:23:00,15.0,11.0,30.00,North,0,2.0,5.0,83,-99.99,,,-99.99,,2013-01-01 11:23:00,
2013-01-01 06:33:00,15.0,11.0,30.00,NNW,330,2.0,6.0,84,-99.99,,,-99.99,,2013-01-01 11:33:00,
2013-01-01 06:43:00,15.0,11.0,30.00,NNW,330,2.0,6.0,84,-99.99,,,-99.99,,2013-01-01 11:43:00,
2013-01-01 06:53:00,14.0,11.0,30.01,NNE,20,1.0,3.0,85,-99.99,,,-99.99,,2013-01-01 11:53:00,
2013-01-01 07:03:00,14.0,11.0,30.01,NNE,20,1.0,3.0,85,-99.99,,,-99.99,,2013-01-01 12:03:00,
2013-01-01 07:12:00,14.0,11.0,30.01,NNE,20,1.0,3.0,85,-99.99,,,-99.99,,2013-01-01 12:12:00,
2013-01-01 07:22:00,14.0,11.0,30.01,North,355,1.0,3.0,86,-99.99,,,-99.99,,2013-01-01 12:22:00,
2013-01-01 07:33:00,14.0,11.0,30.01,NNE,25,4.0,4.0,87,-99.99,,,-99.99,,2013-01-01 12:33:00,
2013-01-01 07:43:00,14.0,11.0,30.01,NNE,25,4.0,4.0,87,-99.99,,,-99.99,,2013-01-01 12:43:00,
2013-01-01 07:52:00,13.0,10.0,30.02,NNE,25,3.0,4.0,87,-99.99,,,-99.99,,2013-01-01 12:52:00,
2013-01-01 08:03:00,13.0,10.0,30.02,NNE,20,3.0,6.0,87,-99.99,,,-99.99,,2013-01-01 13:03:00,
2013-01-01 08:12:00,13.0,10.0,30.02,NNE,20,3.0,6.0,87,-99.99,,,-99.99,,2013-01-01 13:12:00,
2013-01-01 08:22:00,13.0,10.0,30.02,North,355,2.0,4.0,88,-99.99,,,-99.99,,2013-01-01 13:22:00,
2013-01-01 08:33:00,14.0,11.0,30.02,NNW,330,2.0,3.0,88,-99.99,,,-99.99,,2013-01-01 13:33:00,
2013-01-01 08:43:00,14.0,11.0,30.02,NNW,330,2.0,3.0,88,-99.99,,,-99.99,,2013-01-01 13:43:00,
2013-01-01 08:52:00,15.0,12.0,30.02,West,275,2.0,7.0,88,-99.99,,,-99.99,,2013-01-01 13:52:00,
2013-01-01 09:03:00,15.0,12.0,30.02,West,275,2.0,7.0,88,-99.99,,,-99.99,,2013-01-01 14:03:00,
2013-01-01 09:12:00,15.0,12.0,30.02,West,275,2.0,7.0,88,-99.99,,,-99.99,,2013-01-01 14:12:00,
2013-01-01 09:22:00,16.0,13.0,30.00,WNW,290,6.0,10.0,86,-99.99,,,-99.99,,2013-01-01 14:22:00,
2013-01-01 09:32:00,17.0,13.0,30.01,West,275,5.0,11.0,85,-99.99,,,-99.99,,2013-01-01 14:32:00,
2013-01-01 09:42:00,17.0,13.0,30.01,West,275,5.0,11.0,85,-99.99,,,-99.99,,2013-01-01 14:42:00,
2013-01-01 09:53:00,17.0,13.0,30.00,West,270,5.0,11.0,84,-99.99,,,-99.99,,2013-01-01 14:53:00,
2013-01-01 10:03:00,17.0,14.0,30.00,West,275,6.0,11.0,85,-99.99,,,-99.99,,2013-01-01 15:03:00,
2013-01-01 10:12:00,17.0,14.0,30.00,West,275,6.0,11.0,85,-99.99,,,-99.99,,2013-01-01 15:12:00,
2013-01-01 10:22:00,18.0,14.0,30.00,West,265,9.0,13.0,84,-99.99,,,-99.99,,2013-01-01 15:22:00,
2013-01-01 10:33:00,18.0,14.0,30.01,West,280,6.0,14.0,84,-99.99,,,-99.99,,2013-01-01 15:33:00,
2013-01-01 10:43:00,18.0,14.0,30.01,West,280,6.0,14.0,84,-99.99,,,-99.99,,2013-01-01 15:43:00,
2013-01-01 10:53:00,19.0,15.0,30.02,West,270,8.0,15.0,85,-99.99,,,-99.99,,2013-01-01 15:53:00,
2013-01-01 11:02:00,19.0,15.0,30.02,West,280,7.0,14.0,85,-99.99,,,-99.99,,2013-01-01 16:02:00,
2013-01-01 11:12:00,19.0,15.0,30.02,West,280,7.0,14.0,85,-99.99,,,-99.99,,2013-01-01 16:12:00,
2013-01-01 11:22:00,20.0,16.0,30.02,West,275,8.0,17.0,85,-99.99,,,-99.99,,2013-01-01 16:22:00,
2013-01-01 11:33:00,20.0,16.0,30.02,East,90,1.0,14.0,85,-99.99,,,-99.99,,2013-01-01 16:33:00,
2013-01-01 11:43:00,20.0,16.0,30.02,East,90,1.0,14.0,85,-99.99,,,-99.99,,2013-01-01 16:43:00,
2013-01-01 11:52:00,20.0,16.0,30.02,WSW,240,3.0,11.0,83,-99.99,,,-99.99,,2013-01-01 16:52:00,
2013-01-01 12:02:00,20.0,16.0,30.02,West,260,5.0,14.0,82,-99.99,,,-99.99,,2013-01-01 17:02:00,
2013-01-01 12:12:00,20.0,16.0,30.02,West,260,5.0,14.0,82,-99.99,,,-99.99,,2013-01-01 17:12:00,
2013-01-01 12:23:00,20.0,16.0,30.02,WSW,250,6.0,13.0,81,-99.99,,,-99.99,,2013-01-01 17:23:00,
2013-01-01 12:33:00,20.0,15.0,30.01,West,275,8.0,15.0,81,-99.99,,,-99.99,,2013-01-01 17:33:00,
2013-01-01 12:43:00,20.0,15.0,30.01,West,275,8.0,15.0,81,-99.99,,,-99.99,,2013-01-01 17:43:00,
2013-01-01 12:53:00,20.0,16.0,30.00,West,270,8.0,14.0,81,-99.99,,,-99.99,,2013-01-01 17:53:00,
2013-01-01 13:03:00,20.0,15.0,29.99,West,260,3.0,14.0,80,-99.99,,,-99.99,,2013-01-01 18:03:00,
2013-01-01 13:13:00,20.0,15.0,29.99,West,260,3.0,14.0,80,-99.99,,,-99.99,,2013-01-01 18:13:00,
2013-01-01 13:23:00,21.0,15.0,29.98,WSW,255,4.0,14.0,78,-99.99,,,-99.99,,2013-01-01 18:23:00,
2013-01-01 13:33:00,20.0,14.0,29.98,WSW,255,8.0,15.0,74,-99.99,,,-99.99,,2013-01-01 18:33:00,
2013-01-01 13:43:00,20.0,14.0,29.98,WSW,255,8.0,15.0,74,-99.99,,,-99.99,,2013-01-01 18:43:00,
2013-01-01 13:52:00,20.0,12.0,29.97,West,270,9.0,15.0,71,-99.99,,,-99.99,,2013-01-01 18:52:00,
2013-01-01 14:02:00,21.0,12.0,29.96,WSW,250,5.0,15.0,69,-99.99,,,-99.99,,2013-01-01 19:02:00,
2013-01-01 14:12:00,21.0,12.0,29.96,WSW,250,5.0,15.0,69,-99.99,,,-99.99,,2013-01-01 19:12:00,
2013-01-01 14:22:00,21.0,12.0,29.96,West,270,8.0,16.0,66,-99.99,,,-99.99,,2013-01-01 19:22:00,
2013-01-01 14:33:00,21.0,9.0,29.95,West,270,5.0,15.0,59,-99.99,,,-99.99,,2013-01-01 19:33:00,
2013-01-01 14:43:00,21.0,9.0,29.95,West,270,5.0,15.0,59,-99.99,,,-99.99,,2013-01-01 19:43:00,
2013-01-01 14:52:00,21.0,10.0,29.94,West,275,8.0,16.0,64,-99.99,,,-99.99,,2013-01-01 19:52:00,
2013-01-01 15:02:00,21.0,10.0,29.94,West,275,8.0,16.0,64,-99.99,,,-99.99,,2013-01-01 20:02:00,
2013-01-01 15:13:00,21.0,10.0,29.94,West,275,8.0,16.0,64,-99.99,,,-99.99,,2013-01-01 20:13:00,
2013-01-01 15:23:00,21.0,10.0,29.93,West,270,7.0,14.0,61,-99.99,,,-99.99,,2013-01-01 20:23:00,
2013-01-01 15:32:00,21.0,11.0,29.93,WSW,255,6.0,17.0,64,-99.99,,,-99.99,,2013-01-01 20:32:00,
2013-01-01 15:42:00,21.0,11.0,29.93,WSW,255,6.0,17.0,64,-99.99,,,-99.99,,2013-01-01 20:42:00,
2013-01-01 15:52:00,22.0,12.0,29.93,SSW,210,5.0,9.0,65,-99.99,,,-99.99,,2013-01-01 20:52:00,
2013-01-01 16:03:00,22.0,13.0,29.92,South,190,4.0,12.0,65,-99.99,,,-99.99,,2013-01-01 21:03:00,
2013-01-01 16:13:00,22.0,13.0,29.92,South,190,4.0,12.0,65,-99.99,,,-99.99,,2013-01-01 21:13:00,
2013-01-01 16:22:00,23.0,14.0,29.92,NE,45,4.0,13.0,67,-99.99,,,-99.99,,2013-01-01 21:22:00,
2013-01-01 16:33:00,22.0,13.0,29.92,SSW,210,4.0,10.0,68,-99.99,,,-99.99,,2013-01-01 21:33:00,
2013-01-01 16:42:00,22.0,13.0,29.92,SSW,210,4.0,10.0,68,-99.99,,,-99.99,,2013-01-01 21:42:00,
2013-01-01 16:52:00,22.0,13.0,29.92,SSW,205,6.0,11.0,69,-99.99,,,-99.99,,2013-01-01 21:52:00,
2013-01-01 17:03:00,22.0,14.0,29.92,SW,215,4.0,11.0,70,-99.99,,,-99.99,,2013-01-01 22:03:00,
2013-01-01 17:12:00,22.0,14.0,29.92,SW,215,4.0,11.0,70,-99.99,,,-99.99,,2013-01-01 22:12:00,
2013-01-01 17:22:00,22.0,14.0,29.92,East,85,3.0,10.0,71,-99.99,,,-99.99,,2013-01-01 22:22:00,
2013-01-01 17:33:00,22.0,14.0,29.92,SSE,155,2.0,11.0,73,-99.99,,,-99.99,,2013-01-01 22:33:00,
2013-01-01 17:43:00,22.0,14.0,29.92,SSE,155,2.0,11.0,73,-99.99,,,-99.99,,2013-01-01 22:43:00,
2013-01-01 17:52:00,22.0,15.0,29.92,North,0,2.0,11.0,74,-99.99,,,-99.99,,2013-01-01 22:52:00,
2013-01-01 18:03:00,22.0,15.0,29.92,ENE,70,3.0,9.0,75,-99.99,,,-99.99,,2013-01-01 23:03:00,
2013-01-01 18:13:00,22.0,15.0,29.92,ENE,70,3.0,9.0,75,-99.99,,,-99.99,,2013-01-01 23:13:00,
2013-01-01 18:22:00,22.0,15.0,29.92,West,260,5.0,17.0,74,-99.99,,,-99.99,,2013-01-01 23:22:00,
2013-01-01 18:32:00,22.0,15.0,29.92,East,80,2.0,11.0,76,-99.99,,,-99.99,,2013-01-01 23:32:00,
2013-01-01 18:42:00,22.0,15.0,29.92,East,80,2.0,11.0,76,-99.99,,,-99.99,,2013-01-01 23:42:00,
2013-01-01 18:52:00,22.0,15.0,29.93,SSW,195,3.0,23.0,75,-99.99,,,-99.99,,2013-01-01 23:52:00,
2013-01-01 19:03:00,21.0,14.0,29.93,WSW,255,9.0,20.0,74,-99.99,,,-99.99,,2013-01-02 00:03:00,
2013-01-01 19:12:00,21.0,14.0,29.93,WSW,255,9.0,20.0,74,-99.99,,,-99.99,,2013-01-02 00:12:00,
2013-01-01 19:22:00,20.0,12.0,29.92,West,260,9.0,21.0,71,-99.99,,,-99.99,,2013-01-02 00:22:00,
2013-01-01 19:32:00,19.0,10.0,29.92,West,265,12.0,26.0,67,-99.99,,,-99.99,,2013-01-02 00:32:00,
2013-01-01 19:43:00,19.0,10.0,29.92,West,265,12.0,26.0,67,-99.99,,,-99.99,,2013-01-02 00:43:00,
2013-01-01 19:52:00,18.0,9.0,29.92,WNW,290,10.0,16.0,65,-99.99,,,-99.99,,2013-01-02 00:52:00,
2013-01-01 20:02:00,17.0,8.0,29.92,WNW,295,6.0,16.0,65,-99.99,,,-99.99,,2013-01-02 01:02:00,
2013-01-01 20:12:00,17.0,8.0,29.92,WNW,295,6.0,16.0,65,-99.99,,,-99.99,,2013-01-02 01:12:00,
2013-01-01 20:22:00,17.0,7.0,29.92,WNW,290,7.0,16.0,66,-99.99,,,-99.99,,2013-01-02 01:22:00,
2013-01-01 20:32:00,16.0,7.0,29.91,WNW,290,9.0,13.0,68,-99.99,,,-99.99,,2013-01-02 01:32:00,
2013-01-01 20:42:00,16.0,7.0,29.91,WNW,290,9.0,13.0,68,-99.99,,,-99.99,,2013-01-02 01:42:00,
2013-01-01 20:52:00,16.0,7.0,29.92,WNW,290,9.0,14.0,68,-99.99,,,-99.99,,2013-01-02 01:52:00,
2013-01-01 21:02:00,16.0,6.0,29.92,WNW,290,10.0,18.0,65,-99.99,,,-99.99,,2013-01-02 02:02:00,
2013-01-01 21:12:00,16.0,6.0,29.92,WNW,290,10.0,18.0,65,-99.99,,,-99.99,,2013-01-02 02:12:00,
2013-01-01 21:22:00,16.0,7.0,29.91,WNW,290,9.0,16.0,66,-99.99,,,-99.99,,2013-01-02 02:22:00,
2013-01-01 21:32:00,16.0,7.0,29.91,WNW,290,9.0,14.0,66,-99.99,,,-99.99,,2013-01-02 02:32:00,
2013-01-01 21:42:00,16.0,7.0,29.91,WNW,290,9.0,14.0,66,-99.99,,,-99.99,,2013-01-02 02:42:00,
2013-01-01 21:52:00,17.0,7.0,29.90,West,265,9.0,16.0,64,-99.99,,,-99.99,,2013-01-02 02:52:00,
2013-01-01 22:02:00,17.0,6.0,29.91,WNW,295,9.0,16.0,62,-99.99,,,-99.99,,2013-01-02 03:02:00,
2013-01-01 22:12:00,17.0,6.0,29.91,WNW,295,9.0,16.0,62,-99.99,,,-99.99,,2013-01-02 03:12:00,
2013-01-01 22:22:00,17.0,5.0,29.91,WNW,290,8.0,15.0,61,-99.99,,,-99.99,,2013-01-02 03:22:00,
2013-01-01 22:32:00,17.0,5.0,29.90,West,275,9.0,17.0,58,-99.99,,,-99.99,,2013-01-02 03:32:00,
2013-01-01 22:42:00,17.0,5.0,29.90,West,275,9.0,17.0,58,-99.99,,,-99.99,,2013-01-02 03:42:00,
2013-01-01 22:52:00,18.0,4.0,29.90,West,275,9.0,19.0,54,-99.99,,,-99.99,,2013-01-02 03:52:00,
2013-01-01 23:03:00,18.0,4.0,29.90,WNW,285,13.0,19.0,54,-99.99,,,-99.99,,2013-01-02 04:03:00,
2013-01-01 23:12:00,18.0,4.0,29.90,WNW,285,13.0,19.0,54,-99.99,,,-99.99,,2013-01-02 04:12:00,
2013-01-01 23:22:00,17.0,4.0,29.90,West,265,8.0,21.0,56,-99.99,,,-99.99,,2013-01-02 04:22:00,
2013-01-01 23:32:00,17.0,4.0,29.90,West,275,9.0,17.0,55,-99.99,,,-99.99,,2013-01-02 04:32:00,
2013-01-01 23:42:00,17.0,4.0,29.90,West,275,9.0,17.0,55,-99.99,,,-99.99,,2013-01-02 04:42:00,
2013-01-01 23:52:00,17.0,5.0,29.90,West,275,9.0,16.0,57,-99.99,,,-99.99,,2013-01-02 04:52:00,